N8DH Weather Reports


Display with metric or nautical units.
time (UTC)temp
F
wind
direction
speed
MPH
gust
MPH
rain 1hr
in
rain 24hr
in
rain mn
in
humidity
%
barometer
mb
20260831191508 83 238 4.0 7.0 0.00 0.01 0.00 63 1010.0
20260831190050 84 194 0.0 7.0 0.00 0.01 0.00 63 1010.3
20260831184605 85 225 3.0 6.0 0.00 0.02 0.00 63 1010.3
20260831183136 85 214 4.0 8.0 0.00 0.02 0.00 64 1010.6
20260831181650 84 265 1.0 7.0 0.00 0.02 0.00 63 1010.7
20260831180020 85 211 2.0 8.0 0.00 0.02 0.00 64 1010.9
20260831174546 85 202 3.0 7.0 0.00 0.02 0.00 63 1011.0
20260831173106 85 234 2.0 7.0 0.00 0.02 0.00 64 1011.0
20260831171637 84 234 2.0 12.0 0.00 0.02 0.00 65 1011.1
20260831170010 85 246 4.0 11.0 0.00 0.02 0.00 64 1011.3
20260831164613 84 194 2.0 7.0 0.00 0.02 0.00 68 1011.3
20260831163136 83 243 2.0 7.0 0.00 0.02 0.00 70 1011.3
20260831161505 83 225 2.0 7.0 0.00 0.02 0.00 73 1011.2
20260831160015 83 176 3.0 8.0 0.00 0.02 0.00 71 1011.2
20260831154606 83 242 5.0 7.0 0.00 0.02 0.00 72 1011.2
20260831153022 82 211 5.0 7.0 0.00 0.02 0.00 73 1011.2
20260831151604 80 223 2.0 4.0 0.00 0.02 0.00 76 1011.3
20260831150022 79 180 1.0 5.0 0.00 0.02 0.00 77 1011.3
20260831144555 79 215 2.0 5.0 0.00 0.02 0.00 77 1011.2
20260831143026 78 176 1.0 4.0 0.00 0.02 0.00 80 1011.2
20260831141615 77 173 1.0 5.0 0.00 0.02 0.00 83 1011.2
20260831140149 77 193 2.0 5.0 0.00 0.02 0.00 82 1011.2
20260831134507 76 207 2.0 4.0 0.00 0.02 0.00 85 1011.2
20260831133050 75 199 2.0 4.0 0.00 0.02 0.00 85 1011.2
20260831131525 74 136 0.0 2.0 0.00 0.02 0.00 87 1011.2
20260831130118 73 175 0.0 2.0 0.00 0.02 0.00 88 1011.3
20260831124646 72 167 0.0 2.0 0.00 0.02 0.00 89 1011.3
20260831123013 71 159 0.0 3.0 0.00 0.02 0.00 90 1011.2
20260831121606 71 169 0.0 2.0 0.00 0.02 0.00 90 1011.2
20260831120027 71 228 0.0 2.0 0.00 0.02 0.00 90 1011.3
20260831114617 71 139 0.0 2.0 0.00 0.02 0.00 91 1011.1
20260831113054 70 139 0.0 2.0 0.00 0.02 0.00 91 1011.1
20260831111529 71 167 0.0 3.0 0.00 0.02 0.00 89 1011.1
20260831110005 70 147 1.0 2.0 0.00 0.02 0.00 91 1010.9
20260831104605 69 154 1.0 3.0 0.00 0.02 0.00 92 1010.9
20260831103140 69 133 0.0 2.0 0.00 0.02 0.00 92 1010.6
20260831101653 69 133 0.0 2.0 0.00 0.02 0.00 92 1010.4
20260831100008 68 133 0.0 1.0 0.00 0.02 0.00 93 1010.3
20260831094607 68 133 0.0 2.0 0.00 0.02 0.00 92 1010.5
20260831093145 68 133 0.0 2.0 0.00 0.02 0.00 92 1010.4
20260831091517 69 133 0.0 2.0 0.00 0.02 0.00 92 1010.4
20260831090057 69 159 1.0 2.0 0.00 0.02 0.00 92 1010.4
20260831084636 69 159 0.0 2.0 0.00 0.02 0.00 92 1010.5
20260831083033 69 159 0.0 2.0 0.00 0.02 0.00 91 1010.5
20260831081545 68 159 0.0 2.0 0.00 0.02 0.00 91 1010.4
20260831080105 69 182 0.0 2.0 0.00 0.02 0.00 91 1010.5
20260831074506 69 182 0.0 1.0 0.00 0.02 0.00 90 1010.7
20260831073039 69 114 0.0 1.0 0.00 0.02 0.00 90 1010.7
20260831071606 69 114 0.0 2.0 0.00 0.02 0.00 90 1010.8
20260831070142 69 114 0.0 2.0 0.00 0.02 0.00 90 1010.8
20260831064511 69 125 0.0 2.0 0.00 0.02 0.00 90 1010.8
20260831063045 69 153 0.0 1.0 0.00 0.02 0.00 89 1010.8
20260831061519 69 152 0.0 2.0 0.00 0.02 0.00 90 1011.1
20260831060112 69 150 0.0 2.0 0.00 0.02 0.00 89 1011.1
20260831054536 69 152 0.0 3.0 0.00 0.02 0.00 88 1011.3
20260831053105 69 155 0.0 3.0 0.00 0.02 0.00 88 1011.4
20260831051641 69 163 1.0 5.0 0.00 0.02 0.00 89 1011.3
20260831050138 69 162 1.0 3.0 0.00 0.02 0.00 91 1011.2
20260831044652 68 166 1.0 3.0 0.00 0.02 0.00 91 1011.2
20260831043155 69 157 1.0 3.0 0.00 0.02 0.00 91 1011.3
20260831041545 69 147 1.0 2.0 0.00 0.02 0.00 90 1011.5
20260831040051 69 144 1.0 3.0 0.00 0.02 0.00 90 1011.7
20260831034533 70 148 1.0 3.0 0.00 0.02 0.02 89 1011.5
20260831033100 70 129 1.0 4.0 0.00 0.02 0.02 89 1011.5
20260831031642 70 154 2.0 4.0 0.00 0.02 0.02 90 1011.6
20260831030017 69 140 3.0 7.0 0.01 0.02 0.02 92 1011.5
20260831024559 69 136 0.0 3.0 0.01 0.02 0.02 92 1012.0
20260831023124 69 121 1.0 2.0 0.01 0.02 0.02 93 1012.1
20260831021648 69 118 0.0 2.0 0.01 0.02 0.02 93 1012.1
20260831020035 69 139 0.0 2.0 0.00 0.01 0.01 93 1012.2
20260831014613 68 111 3.0 5.0 0.00 0.01 0.01 94 1012.3
20260831013023 69 315 0.0 2.0 0.00 0.01 0.01 93 1012.7
20260831011604 69 315 0.0 2.0 0.00 0.01 0.01 93 1012.9
20260831010139 70 315 0.0 2.0 0.00 0.01 0.01 93 1012.8
20260831004650 70 315 0.0 2.0 0.00 0.01 0.01 92 1012.5
20260831003003 70 45 0.0 1.0 0.00 0.01 0.01 92 1012.1
20260831001523 70 322 0.0 2.0 0.00 0.01 0.01 92 1012.1
20260831000118 71 322 0.0 0.0 0.00 0.01 0.01 92 1012.1
20260830234637 71 322 0.0 2.0 0.00 0.01 0.01 91 1012.2
20260830233059 72 322 0.0 1.0 0.00 0.01 0.01 90 1012.1
20260830231644 72 328 1.0 2.0 0.00 0.01 0.01 89 1011.9
20260830230141 72 161 0.0 2.0 0.00 0.01 0.01 87 1011.5
20260830224644 73 161 0.0 2.0 0.00 0.01 0.01 84 1011.1
20260830223151 74 159 0.0 3.0 0.00 0.01 0.01 81 1010.8
20260830221526 74 146 1.0 5.0 0.00 0.01 0.01 80 1010.6
20260830220105 75 155 2.0 6.0 0.00 0.01 0.01 80 1010.4
20260830214643 75 148 2.0 8.0 0.00 0.01 0.01 81 1010.5
20260830213145 75 148 3.0 7.0 0.00 0.01 0.01 82 1010.5
20260830211647 75 119 3.0 7.0 0.00 0.01 0.01 82 1010.4
20260830210019 74 119 5.0 9.0 0.00 0.01 0.01 84 1010.3
20260830204606 74 151 2.0 4.0 0.00 0.01 0.01 84 1011.1
20260830203145 73 153 3.0 5.0 0.00 0.01 0.01 85 1011.0
20260830201513 73 151 2.0 6.0 0.00 0.01 0.01 87 1011.0
20260830200057 73 132 2.0 4.0 0.00 0.01 0.01 88 1011.3
20260830194520 73 141 1.0 2.0 0.00 0.01 0.01 87 1011.5
20260830193101 73 142 1.0 3.0 0.01 0.01 0.01 87 1011.7
20260830191620 73 163 1.0 9.0 0.01 0.01 0.01 87 1012.0